Weather in Sergeyevo

Russia / Ivanovo Oblast     56°45′39″N   41°24′39″E
temp.,
°C
wind,
m/s
gust,
m/s
humid.,
%
clouds,
%
prec.,
mm/h
press.,
hPa
HPBL,
m
27 october, wed
wed2700:00+2sw4128194 0.0 1017431
03:00+2sw41183100 0.0 1016405
06:00+1sw41190100 0.0 1015348
09:00+2sw41282100 0.0 1013505
12:00+5sw51271100 0.0 1012658
15:00+5sw51271100 0.0 1010772
18:00+4wsw61287100 0.4 1010918
21:00+5wsw51188100 1.2 1010849
28 october, thu
thu2800:00+5wsw51287100 0.0 1011715
03:00+5wsw41185100 0.1 1011620
06:00+4sw3993100 0.0 1010325
09:00+5ssw3889100 0.0 1009418
12:00+5ssw3895100 2.0 1009824
15:00+5wnw1697100 2.9 1010378
18:00+5n4888100 0.3 1014905
21:00+5nnw3992100 0.4 1018486
29 october, fri
fri2900:00+3n488923 0.0 1022425
03:000nne25935 0.0 1025189
06:00−1e1386100 0.0 1026117
09:000sse237499 0.0 1028226
12:00+3ssw3567100 0.0 1028418
15:00+5ssw41080100 0.1 1026572
18:00+6sw5138099 0.3 1024672
21:00+6wsw5138089 0.3 1024628
30 october, sat
sat3000:00+5sw513905 0.0 1024454
03:00+6wsw5149460 0.0 1024440
06:00+7wsw51293100 0.0 1025515
09:00+9wsw41289100 0.0 1025531
12:00+10wsw5138211 0.0 1025535
15:00+11wsw411796 0.0 1025638
18:00+9wsw5138446 0.0 1026403
21:00+7wsw4127919 0.0 1027327
31 october, sun
sun3100:00+5sw3108485 0.0 1027257
03:00+5sw311865 0.0 1027264
06:00+4sw4119084 0.0 1027277
09:00+5sw4128549 0.0 1026369
12:00+9sw4127222 0.0 1026489
15:00+9sw4117230 0.0 1025556
18:00+7sw412836 0.0 1026357
21:00+5sw3108980 0.0 1026255